Date,TemperatureHighF,TemperatureAvgF,TemperatureLowF,DewpointHighF,DewpointAvgF,DewpointLowF,HumidityHigh,HumidityAvg,HumidityLow,PressureMaxIn,PressureMinIn,WindSpeedMaxMPH,WindSpeedAvgMPH,GustSpeedMaxMPH,PrecipitationSumIn
2013-1-1,38,31,20,21,14,2,61,50,44,29.32,29.15,25,8,25,0.00
2013-1-2,34,22,14,13,5,1,55,48,42,29.50,29.32,25,7,25,0.00
2013-1-3,36,19,8,16,2,-8,54,47,40,29.56,29.41,20,6,20,0.00
2013-1-4,43,28,19,23,14,6,63,53,43,29.41,29.26,17,4,25,0.00
2013-1-5,50,33,25,26,15,11,55,49,39,29.68,29.29,31,5,31,0.00
2013-1-6,47,34,29,33,23,13,100,66,48,29.62,29.32,14,1,14,0.04
2013-1-7,53,35,28,30,19,12,66,53,40,29.83,29.38,22,5,22,0.00
2013-1-8,53,38,27,36,25,12,100,62,41,29.85,29.74,22,3,22,0.00
2013-1-9,43,38,29,35,30,25,100,76,51,29.83,29.47,22,3,22,0.00
2013-1-10,56,40,31,32,21,16,65,48,37,29.97,29.53,26,8,26,0.00
2013-1-11,42,34,27,42,25,16,100,70,52,29.97,29.56,10,2,11,0.16
2013-1-12,48,44,41,48,44,41,100,100,100,29.59,29.50,16,1,16,0.04
2013-1-13,52,46,43,51,46,41,100,99,70,29.56,29.41,11,1,12,0.04
2013-1-14,66,50,36,58,41,23,100,76,47,29.68,29.35,20,7,20,0.00
2013-1-15,40,36,34,34,27,21,100,71,52,29.74,29.62,17,4,17,0.20
2013-1-16,34,33,32,34,32,22,100,94,60,29.65,29.23,12,2,12,0.12
2013-1-17,52,36,31,34,26,14,100,69,44,29.47,29.23,26,5,26,0.20
2013-1-18,40,25,18,18,6,0,51,45,40,29.91,29.41,27,7,27,0.00
2013-1-19,51,38,20,31,22,2,68,53,44,29.85,29.32,25,8,25,0.04
2013-1-20,60,42,28,35,24,8,66,49,39,29.32,29.00,23,9,23,0.00
2013-1-21,32,26,19,23,11,3,89,55,43,29.50,29.15,17,3,17,0.00
2013-1-22,38,20,12,21,5,-6,93,53,40,29.50,29.12,31,9,31,0.00
2013-1-23,27,12,6,7,-6,-11,44,44,41,29.56,29.47,25,8,25,0.00
2013-1-24,34,12,3,12,-6,-14,44,43,40,29.68,29.50,30,12,30,0.00
2013-1-25,28,17,9,9,-1,-9,70,46,41,29.74,29.41,20,6,20,0.00
2013-1-26,37,18,10,16,4,-3,74,56,42,29.68,29.38,26,9,26,0.00
2013-1-27,45,22,12,22,3,-5,54,44,40,29.91,29.68,20,8,20,0.00
2013-1-28,34,27,19,34,16,0,100,66,41,29.88,29.38,11,1,11,0.00
2013-1-29,57,35,30,36,31,25,100,85,45,29.59,29.38,12,1,12,0.12
2013-1-30,56,50,36,56,50,36,100,100,100,29.53,28.85,26,8,26,0.08
2013-1-31,62,48,29,58,34,9,100,64,36,29.03,28.44,38,12,38,0.43
2013-2-1,36,27,20,15,7,0,44,43,41,29.53,29.03,25,9,25,0.00
2013-2-2,39,24,14,17,6,0,54,46,41,29.68,25.42,21,4,21,0.00
2013-2-3,47,26,18,23,12,7,70,54,39,29.44,29.12,16,3,16,0.00
2013-2-4,42,25,19,20,8,1,60,47,41,29.35,29.12,30,8,30,0.00
2013-2-5,26,24,22,17,11,2,73,58,42,29.38,29.29,12,2,12,0.00
2013-2-6,49,31,25,26,16,5,77,56,39,29.74,29.29,26,7,26,0.00
2013-2-7,39,26,17,17,7,0,47,43,41,29.94,29.74,17,4,17,0.00
2013-2-8,33,30,22,33,24,5,100,81,44,29.85,28.82,51,9,51,0.04
2013-2-9,28,21,14,20,12,-2,94,70,45,29.62,28.85,31,5,31,0.04
2013-2-10,52,24,10,27,6,-6,53,46,38,29.85,29.62,26,5,26,0.04
2013-2-11,46,37,24,46,34,10,100,88,53,29.77,29.03,17,3,17,0.63
2013-2-12,54,39,33,42,27,18,100,66,40,29.29,29.03,21,5,21,0.04
2013-2-13,58,36,28,31,19,14,61,51,37,29.29,29.03,17,2,17,0.00
2013-2-14,60,36,27,33,24,18,100,67,37,29.41,29.06,12,2,12,0.12
2013-2-15,60,40,31,42,33,26,100,79,42,29.41,29.32,14,2,17,0.00
2013-2-16,39,35,29,38,27,18,100,75,52,29.32,29.03,22,7,22,0.00
2013-2-17,29,22,14,20,7,-3,75,52,42,29.15,22.68,45,18,45,0.00
2013-2-18,43,23,13,20,4,-3,47,44,40,29.59,29.15,38,12,38,0.00
2013-2-19,50,38,24,45,27,5,100,69,44,29.59,28.97,22,4,22,0.35
2013-2-20,48,32,23,40,16,4,100,54,39,29.23,28.97,31,10,31,0.00
2013-2-21,43,25,19,21,8,4,55,48,40,29.62,29.21,34,11,34,0.00
2013-2-22,52,32,20,28,16,8,65,52,39,29.80,29.62,17,4,17,0.00
2013-2-23,38,34,32,36,27,18,100,75,58,29.74,29.21,22,4,22,0.20
2013-2-24,39,36,33,38,34,29,100,95,70,29.26,29.03,26,10,26,0.28
2013-2-25,50,36,29,33,24,20,100,63,46,29.65,29.26,22,5,22,0.00
2013-2-26,42,36,33,28,23,19,77,58,48,29.74,29.47,19,2,19,0.00
2013-2-27,44,41,35,44,41,28,100,100,78,29.47,28.94,48,9,48,1.57
2013-2-28,47,40,36,46,37,31,100,90,56,29.00,28.88,8,0,8,0.00
2013-3-1,62,40,33,37,28,20,100,65,37,29.06,28.91,22,7,22,0.00
2013-3-2,39,35,32,23,20,18,62,53,49,29.09,29.00,22,7,22,0.00
2013-3-3,45,34,28,25,19,16,71,56,45,29.03,28.94,21,9,21,0.00
2013-3-4,50,33,26,27,16,13,64,50,41,29.15,29.00,35,13,35,0.00
2013-3-5,63,38,26,35,21,13,63,50,36,29.44,29.15,22,6,22,0.00
2013-3-6,46,37,32,34,27,21,92,67,48,29.41,29.29,38,11,46,0.00
2013-3-7,41,34,31,31,24,20,95,67,49,29.35,29.26,46,17,46,0.00
2013-3-8,35,32,30,32,27,18,100,82,51,29.50,29.29,34,14,34,0.00
2013-3-9,71,41,29,41,22,13,67,46,34,29.77,29.50,31,9,31,0.47
2013-3-10,72,38,26,44,27,20,100,69,35,29.83,29.74,15,3,15,0.00
2013-3-11,56,42,35,45,34,28,100,75,47,29.77,29.56,17,3,17,0.00
2013-3-12,53,49,43,53,46,39,100,91,67,29.56,29.09,25,8,25,0.79
2013-3-13,67,46,34,53,25,17,100,45,35,29.18,29.12,26,8,26,0.83
2013-3-14,43,31,26,27,15,8,89,52,41,29.23,29.15,49,11,49,0.00
2013-3-15,54,33,24,29,15,6,61,47,38,29.26,29.06,38,9,38,0.00
2013-3-16,49,35,28,25,18,12,62,50,39,29.26,29.09,25,5,25,0.00
2013-3-17,50,32,25,26,14,7,67,48,39,29.71,29.26,31,8,31,0.00
2013-3-18,54,30,19,30,12,2,100,50,38,29.85,29.53,19,5,19,0.00
2013-3-19,39,34,30,39,34,29,100,96,77,29.53,28.94,30,7,30,0.59
2013-3-20,56,35,26,32,19,13,100,53,38,29.18,29.09,34,4,34,0.00
2013-3-21,46,34,29,27,19,14,70,56,45,29.21,28.97,22,6,22,0.00
2013-3-22,54,34,24,29,16,8,56,46,38,29.18,29.00,26,9,26,0.00
2013-3-23,51,36,27,27,18,14,63,48,39,29.23,29.06,40,10,40,0.00
2013-3-24,63,40,27,36,21,13,64,49,36,29.23,29.09,26,6,26,0.00
2013-3-25,49,37,29,33,24,19,94,60,42,29.12,28.79,34,8,34,0.00
2013-3-26,53,39,32,33,23,15,69,52,41,29.18,28.88,23,6,23,0.00
2013-3-27,66,43,29,37,22,13,52,44,35,29.26,29.15,34,8,34,0.00
2013-3-28,58,42,35,35,26,21,66,54,40,29.44,29.26,19,6,19,0.00
2013-3-29,68,48,36,41,29,23,68,48,36,29.47,29.38,17,7,17,0.00
2013-3-30,67,48,36,38,27,20,60,44,35,29.53,29.41,22,7,22,0.00
2013-3-31,63,46,33,46,29,18,100,53,37,29.53,29.03,19,4,19,0.16
2013-4-1,65,48,33,47,36,14,100,66,40,29.21,28.94,30,8,30,0.04
2013-4-2,49,36,25,25,16,10,56,44,39,29.38,29.21,26,8,26,0.00
2013-4-3,50,37,27,25,16,7,43,42,39,29.62,29.38,35,11,35,0.00
2013-4-4,57,39,26,31,19,8,64,45,37,29.77,29.50,22,7,22,0.00
2013-4-5,64,47,37,37,28,18,62,49,36,29.50,29.03,31,8,31,0.00
2013-4-6,56,41,32,30,20,0,52,43,37,29.74,29.26,30,9,30,0.00
2013-4-7,57,44,31,40,29,18,97,58,40,29.74,29.44,26,6,26,0.00
2013-4-8,73,55,44,47,40,32,100,63,36,29.50,29.35,21,4,21,0.00
2013-4-9,82,61,45,58,45,34,100,62,34,29.47,29.26,29,6,29,0.00
2013-4-10,72,53,46,48,42,37,100,70,39,29.44,29.23,31,4,31,0.20
2013-4-11,63,51,44,52,40,26,100,70,44,29.50,29.21,22,4,22,0.00
2013-4-12,44,41,38,40,32,24,100,74,48,29.50,29.09,35,10,35,0.63
2013-4-13,59,46,37,40,32,27,100,64,39,29.35,29.09,26,7,26,0.00
2013-4-14,59,48,39,36,29,18,74,49,37,29.65,29.32,26,7,26,0.00
2013-4-15,57,45,35,40,27,18,100,51,37,29.85,29.62,12,4,12,0.00
2013-4-16,62,50,39,42,39,33,100,69,44,29.85,29.56,26,6,26,0.00
2013-4-17,76,58,43,52,40,30,90,52,35,29.77,29.53,21,7,21,0.00
2013-4-18,64,50,38,45,33,28,82,54,35,29.83,29.56,20,4,20,0.00
2013-4-19,71,59,50,65,57,45,100,94,52,29.56,29.09,25,7,25,0.08
2013-4-20,62,53,44,62,40,23,100,66,39,29.65,29.03,25,8,25,0.59
2013-4-21,61,44,32,34,24,15,62,45,37,30.12,29.65,30,8,30,0.00
2013-4-22,62,44,31,36,29,24,95,56,39,30.18,30.00,29,6,29,0.00
2013-4-23,46,42,38,41,35,26,93,77,61,30.00,29.44,36,11,36,0.00
2013-4-24,74,53,42,51,40,35,100,68,36,29.44,29.26,35,10,35,0.00
2013-4-25,70,55,45,53,38,23,100,57,35,29.68,29.29,26,7,26,0.00
2013-4-26,70,52,38,44,31,19,99,46,37,29.85,29.68,15,4,15,0.00
2013-4-27,70,51,39,44,38,33,100,67,37,29.85,29.74,17,3,17,0.00
2013-4-28,70,53,39,48,38,28,100,62,35,29.77,29.68,12,3,12,0.00
2013-4-29,68,54,47,48,38,28,100,60,35,29.71,29.65,17,2,17,0.00
2013-4-30,70,55,45,43,32,23,58,42,35,29.80,29.68,15,3,15,0.00
2013-5-1,75,54,36,46,34,20,72,47,36,29.94,29.80,16,4,16,0.00
2013-5-2,78,58,44,48,38,30,79,50,35,29.91,29.77,17,3,17,0.00
2013-5-3,71,56,41,44,35,28,67,47,37,29.91,29.80,26,6,26,0.00
2013-5-4,74,55,40,46,36,29,76,51,35,29.80,29.68,25,5,25,0.00
2013-5-5,71,50,36,43,37,29,100,63,37,29.74,29.65,17,4,17,0.00
2013-5-6,74,56,43,48,39,34,100,56,36,29.71,29.59,12,2,12,0.00
2013-5-7,79,60,46,55,49,40,100,70,40,29.59,29.53,12,2,12,0.00
2013-5-8,71,61,55,62,56,51,100,87,52,29.59,29.44,21,2,21,0.00
2013-5-9,70,59,56,63,57,50,100,95,52,29.44,29.26,8,0,8,0.28
2013-5-10,86,66,54,62,52,45,100,67,35,29.38,29.32,15,1,15,0.00
2013-5-11,68,59,56,63,58,49,100,96,54,29.35,29.09,15,1,15,0.43
2013-5-12,74,62,50,63,50,27,100,69,39,29.23,29.00,16,2,16,0.00
2013-5-13,65,51,41,39,29,23,59,43,36,29.44,29.23,21,3,21,0.00
2013-5-14,62,49,38,37,28,23,59,44,36,29.47,29.38,12,2,12,0.00
2013-5-15,64,53,43,53,42,31,100,69,38,29.50,29.09,15,2,15,0.00
2013-5-16,85,65,51,53,46,38,100,55,33,29.21,29.09,16,2,16,0.00
2013-5-17,77,62,50,47,40,34,68,45,35,29.65,29.21,19,3,19,0.00
2013-5-18,75,59,47,48,42,38,87,57,35,29.77,29.65,12,1,12,0.00
2013-5-19,68,56,50,57,47,40,100,73,43,29.80,29.65,10,0,10,0.31
2013-5-20,81,66,57,67,59,54,100,82,42,29.65,29.35,13,0,13,0.12
2013-5-21,88,71,60,70,60,49,100,71,39,29.38,29.26,8,0,8,0.00
2013-5-22,80,62,53,62,54,49,100,79,44,29.35,29.26,12,1,12,0.00
2013-5-23,70,65,62,69,64,58,100,96,74,29.35,29.21,13,2,13,0.75
2013-5-24,74,62,48,71,57,38,100,84,53,29.23,29.06,17,3,17,0.35
2013-5-25,51,47,42,50,44,34,100,88,66,29.21,29.15,23,6,23,0.16
2013-5-26,62,50,42,40,35,32,75,56,41,29.56,29.18,22,6,23,0.04
2013-5-27,82,59,44,51,39,32,71,49,34,29.62,29.50,17,1,17,0.00
2013-5-28,79,60,47,58,44,36,100,59,35,29.65,29.59,6,0,6,0.00
2013-5-29,76,64,57,66,58,52,100,83,48,29.59,29.44,17,0,17,0.08
2013-5-30,93,75,61,73,61,53,100,66,36,29.53,29.44,8,0,9,0.04
2013-5-31,95,78,66,64,57,52,81,51,34,29.53,29.41,0,0,0,0.00
2013-6-1,92,75,65,63,58,54,90,59,37,29.44,29.32,8,0,8,0.00
2013-6-2,87,71,64,77,60,54,100,73,39,29.35,29.21,17,1,17,0.00
2013-6-3,72,67,63,71,64,48,100,94,58,29.26,29.18,8,0,8,0.16
2013-6-4,82,64,52,51,40,33,58,43,34,29.50,29.23,17,4,17,0.16
2013-6-5,81,62,51,50,42,0,70,50,20,29.62,29.50,7,0,7,0.16
2013-6-6,77,62,53,59,50,43,98,67,40,29.62,29.50,12,0,12,0.16
2013-6-7,60,58,56,60,58,54,100,99,86,29.50,29.12,17,2,17,3.50
2013-6-8,83,65,56,64,57,51,100,79,40,29.44,28.94,12,2,12,2.13
2013-6-9,82,68,58,64,54,49,100,63,39,29.62,29.44,6,0,6,0.16
2013-6-10,72,64,60,62,56,51,100,77,52,29.62,29.32,12,0,12,1.38
2013-6-11,82,67,60,72,63,56,100,90,43,29.32,28.97,12,0,12,1.14
2013-6-12,75,65,58,65,48,43,100,57,38,29.23,29.00,21,4,21,0.16
2013-6-13,61,57,54,60,52,44,100,83,60,29.23,28.94,16,1,16,0.59
2013-6-14,69,59,53,56,50,42,100,74,44,29.21,28.91,21,3,21,1.02
2013-6-15,88,68,56,55,49,42,93,55,33,29.35,29.21,11,1,11,0.16
2013-6-16,80,66,57,60,51,40,83,59,40,29.38,29.15,10,0,10,0.16
2013-6-17,87,72,63,63,58,50,96,65,38,29.32,29.21,20,1,20,0.16
2013-6-18,84,68,60,65,59,53,100,77,39,29.32,29.23,8,0,8,0.12
2013-6-19,82,66,56,60,53,45,100,68,34,29.56,29.26,12,1,12,0.00
2013-6-20,86,67,55,60,52,46,100,64,33,29.71,29.56,11,0,11,0.00
2013-6-21,87,69,58,57,51,45,93,56,36,29.74,29.68,12,0,12,0.00
2013-6-22,88,70,59,64,52,46,100,57,35,29.71,29.59,9,0,9,0.00
2013-6-23,91,74,63,71,62,56,100,72,37,29.62,29.50,8,0,8,0.00
2013-6-24,97,79,69,74,65,54,100,66,36,29.50,29.32,12,2,12,0.00
2013-6-25,96,78,67,64,61,56,88,58,36,29.38,29.18,8,0,8,0.00
2013-6-26,88,77,70,72,64,58,99,69,40,29.23,29.15,11,0,11,0.00
2013-6-27,80,73,68,72,66,60,100,83,52,29.23,29.09,8,0,8,0.04
2013-6-28,82,73,68,76,68,61,100,89,52,29.09,28.91,9,0,9,0.63
2013-6-29,87,73,69,74,66,57,100,82,40,29.15,28.88,12,0,12,0.04
2013-6-30,75,72,69,73,68,57,100,89,56,29.35,29.15,7,0,7,0.16
2013-7-1,76,72,70,76,72,70,100,99,83,29.53,29.35,8,0,8,0.63
2013-7-2,79,73,72,77,71,64,100,92,62,29.65,29.53,9,0,9,0.00
2013-7-3,91,76,70,74,68,60,100,79,39,29.71,29.62,11,0,11,0.00
2013-7-4,96,79,73,76,68,61,100,73,37,29.71,29.59,8,0,8,0.00
2013-7-5,97,80,72,74,67,62,100,69,36,29.65,29.53,8,0,8,0.00
2013-7-6,94,79,72,74,67,62,100,70,38,29.53,29.41,6,0,6,0.00
2013-7-7,96,82,74,72,66,60,93,64,37,29.47,29.35,0,0,0,0.00
2013-7-8,93,79,71,74,64,57,100,64,37,29.47,29.35,8,0,8,0.00
2013-7-9,88,74,70,76,69,59,100,86,40,29.50,29.44,5,0,5,0.24
2013-7-10,86,76,72,77,70,63,100,85,49,29.47,29.23,7,0,7,0.08
2013-7-11,79,74,70,76,71,64,100,91,62,29.32,29.21,8,0,8,0.55
2013-7-12,83,72,68,70,59,51,100,68,41,29.59,29.32,12,2,12,0.00
2013-7-13,79,72,67,76,68,56,100,89,61,29.77,29.59,8,0,8,0.08
2013-7-14,93,79,72,78,70,62,100,79,40,29.77,29.65,4,0,4,0.00
2013-7-15,99,82,73,76,67,60,100,66,33,29.68,29.53,0,0,0,0.00
2013-7-16,99,82,71,68,63,59,86,55,33,29.59,29.53,8,0,8,0.00
2013-7-17,93,80,72,73,64,59,100,63,37,29.62,29.47,5,0,5,0.00
2013-7-18,98,83,73,69,65,62,84,58,36,29.47,29.38,0,0,4,0.00
2013-7-19,97,83,76,78,69,64,100,66,37,29.38,29.18,8,0,8,0.00
2013-7-20,93,81,74,75,67,56,93,66,39,29.23,29.09,10,1,10,0.00
2013-7-21,89,74,66,69,60,53,100,66,38,29.41,29.23,9,0,9,0.08
2013-7-22,83,74,68,72,65,58,100,77,47,29.41,29.26,8,0,8,0.00
2013-7-23,86,75,71,79,71,60,100,90,49,29.26,28.97,10,0,10,0.67
2013-7-24,87,76,69,77,63,50,100,69,42,29.32,29.00,11,0,11,0.00
2013-7-25,68,62,59,60,51,42,100,71,49,29.47,29.32,12,4,12,0.20
2013-7-26,72,65,60,66,60,54,100,86,55,29.47,29.38,12,3,12,0.24
2013-7-27,86,73,65,70,62,53,100,74,36,29.50,29.41,8,0,8,0.00
2013-7-28,89,73,68,70,63,54,100,73,38,29.44,29.38,6,0,6,0.00
2013-7-29,87,74,68,74,66,55,100,79,45,29.50,29.38,8,0,8,0.00
2013-7-30,85,71,61,56,52,47,74,52,36,29.56,29.47,12,0,12,0.00
2013-7-31,86,70,61,59,52,48,80,53,36,29.59,29.50,6,0,6,0.00
2013-8-1,84,69,65,69,61,52,100,80,39,29.50,29.29,7,0,7,0.04
2013-8-2,86,70,65,71,61,53,100,76,38,29.32,29.21,11,0,11,0.00
2013-8-3,74,69,64,67,59,50,97,74,53,29.32,29.23,10,0,10,0.04
2013-8-4,85,69,59,62,51,44,99,55,34,29.32,29.23,8,1,12,0.00
2013-8-5,80,66,56,50,45,41,71,49,35,29.47,29.32,13,2,13,0.00
2013-8-6,85,66,53,60,49,41,91,57,33,29.59,29.47,6,0,6,0.00
2013-8-7,83,68,61,67,56,48,100,70,36,29.65,29.56,11,0,11,0.00
2013-8-8,77,71,67,72,64,56,100,81,55,29.56,29.47,6,0,6,0.00
2013-8-9,75,73,71,75,73,71,100,100,100,29.50,29.21,13,1,21,0.71
2013-8-10,86,73,65,73,60,45,100,67,36,29.47,29.23,10,1,10,0.00
2013-8-11,83,67,55,58,47,40,79,51,34,29.53,29.47,8,0,8,0.00
2013-8-12,85,71,64,67,58,50,100,68,36,29.50,29.35,6,0,6,0.00
2013-8-13,72,68,66,70,66,56,100,94,61,29.38,29.12,5,0,5,0.08
2013-8-14,77,66,58,66,49,42,100,57,35,29.41,29.12,14,3,19,0.00
2013-8-15,80,64,54,52,47,44,89,56,35,29.59,29.41,11,0,11,0.00
2013-8-16,84,67,59,63,52,46,100,61,34,29.68,29.56,0,0,0,0.00
2013-8-17,86,68,58,58,53,48,96,61,33,29.74,29.68,0,0,0,0.00
2013-8-18,78,67,61,61,54,49,94,66,41,29.74,29.56,0,0,0,0.00
2013-8-19,83,68,59,63,56,52,100,69,39,29.56,29.44,9,0,9,0.00
2013-8-20,89,73,63,65,58,52,100,64,35,29.59,29.44,10,0,10,0.00
2013-8-21,91,74,65,61,57,52,87,57,35,29.62,29.50,4,0,4,0.00
2013-8-22,80,72,69,74,70,57,100,93,52,29.53,29.32,8,0,8,0.12
2013-8-23,85,73,68,69,60,50,100,70,34,29.44,29.29,11,1,11,0.00
2013-8-24,82,70,59,51,46,43,61,44,34,29.83,29.74,12,1,12,0.00
2013-8-25,86,67,56,58,50,44,100,58,33,29.85,29.71,12,0,12,0.00
2013-8-26,80,69,64,69,56,51,100,66,42,29.71,29.38,12,0,12,0.39
2013-8-27,79,72,68,72,67,59,100,88,51,29.38,29.26,10,0,10,1.50
2013-8-28,89,73,67,73,66,57,100,83,38,29.38,29.32,0,0,0,0.00
2013-8-29,74,67,61,68,59,51,100,78,52,29.53,29.38,12,0,12,0.00
2013-8-30,76,67,60,69,59,52,100,76,52,29.50,29.32,7,0,7,0.00
2013-8-31,78,73,68,72,67,59,100,85,52,29.35,29.29,11,0,11,0.00
2013-9-1,79,74,71,79,71,64,100,92,64,29.35,29.29,7,0,7,0.31
2013-9-2,77,73,72,77,73,72,100,100,96,29.35,29.21,6,0,6,0.75
2013-9-3,75,70,64,75,70,64,100,100,100,29.35,29.21,7,0,7,0.75
2013-9-4,82,67,59,64,54,47,100,66,34,29.44,29.32,12,1,12,0.12
2013-9-5,81,66,54,62,50,38,96,59,37,29.62,29.38,11,1,11,0.00
2013-9-6,75,58,47,46,42,36,96,58,35,29.77,29.62,10,0,10,0.00
2013-9-7,81,63,52,53,44,37,71,52,34,29.62,29.41,11,0,11,0.00
2013-9-8,82,66,52,64,51,33,100,63,35,29.59,29.26,15,2,15,0.00
2013-9-9,75,57,46,46,39,33,69,52,36,29.77,29.59,8,0,8,0.00
2013-9-10,72,66,57,70,60,44,100,81,60,29.71,29.53,12,0,12,0.00
2013-9-11,96,77,70,76,67,60,100,76,37,29.62,29.50,14,0,14,0.00
2013-9-12,88,74,68,73,66,59,100,80,39,29.53,29.21,10,0,11,0.55
2013-9-13,89,70,60,71,61,47,100,77,35,29.26,29.12,13,1,13,0.08
2013-9-14,77,60,52,50,45,40,88,60,38,29.59,29.26,12,1,12,0.00
2013-9-15,83,58,48,52,44,40,94,62,34,29.71,29.59,7,0,7,0.00
2013-9-16,68,59,49,59,50,31,100,75,45,29.74,29.56,13,1,13,0.00
2013-9-17,77,51,39,46,33,29,76,52,35,29.94,29.74,12,2,12,0.00
2013-9-18,88,56,42,56,42,36,100,64,33,29.88,29.71,8,0,8,0.00
2013-9-19,95,62,51,60,49,40,100,67,31,29.71,29.59,8,0,8,0.00
2013-9-20,98,64,54,62,54,45,100,75,31,29.62,29.53,8,0,8,0.00
2013-9-21,76,65,57,68,60,52,100,84,49,29.56,29.23,12,0,12,0.00
2013-9-22,89,65,50,68,52,34,100,69,33,29.35,29.15,12,2,12,0.35
2013-9-23,83,54,44,51,37,33,72,54,34,29.53,29.35,15,2,15,0.00
2013-9-24,84,54,42,53,38,32,91,58,33,29.53,29.35,12,2,12,0.00
2013-9-25,93,58,46,58,43,36,90,60,32,29.50,29.38,12,0,12,0.00
2013-9-26,70,58,52,49,42,39,89,57,40,29.65,29.50,9,0,9,0.00
2013-9-27,71,58,52,52,46,42,93,66,42,29.80,29.62,11,0,11,0.00
2013-9-28,95,60,49,60,50,43,100,75,31,29.85,29.77,8,1,8,0.00
2013-9-29,94,58,49,59,47,39,100,72,31,29.77,29.62,4,0,8,0.00
2013-9-30,93,59,50,58,47,39,100,68,32,29.62,29.47,10,0,10,0.00
2013-10-1,99,63,50,62,50,45,100,68,30,29.50,29.38,12,0,12,0.00
2013-10-2,97,68,57,61,50,46,87,54,31,29.50,29.38,12,1,12,0.00
2013-10-3,88,64,54,55,45,41,66,50,33,29.62,29.50,8,1,8,0.00
2013-10-4,82,63,56,58,52,46,96,68,40,29.59,29.53,7,0,7,0.00
2013-10-5,82,63,58,63,57,50,100,84,40,29.65,29.56,7,0,7,0.12
2013-10-6,63,60,57,62,59,50,100,96,68,29.71,29.62,12,0,12,0.20
2013-10-7,79,68,61,72,64,57,100,89,50,29.65,29.38,16,2,16,0.08
2013-10-8,74,57,49,58,38,34,86,50,36,29.91,29.44,15,3,15,0.00
2013-10-9,70,52,44,43,37,33,85,59,37,29.97,29.88,10,1,10,0.00
2013-10-10,67,56,47,50,46,42,100,73,46,29.88,29.83,10,1,10,0.00
2013-10-11,68,60,52,56,49,34,100,69,45,29.83,29.83,12,1,12,0.00
2013-10-12,80,57,48,52,42,34,79,58,37,29.83,29.83,20,2,20,0.00
2013-10-13,62,53,46,50,42,38,100,67,46,29.83,29.83,12,1,12,0.00
2013-10-14,72,49,38,52,41,36,100,77,36,29.83,29.83,10,0,10,0.00
2013-10-15,54,52,47,47,42,39,100,69,58,29.68,29.59,0,0,0,0.00
2013-10-16,70,56,49,56,48,39,100,75,43,29.59,29.35,8,0,8,0.00
2013-10-17,69,62,57,62,57,50,100,87,53,29.35,29.15,8,0,8,0.00
2013-10-18,76,61,51,64,45,32,100,61,35,29.35,29.06,20,3,20,0.00
2013-10-19,64,55,47,51,36,30,87,51,38,29.41,29.15,8,0,8,0.00
2013-10-20,72,54,47,57,38,27,104,58,34,29.47,29.12,20,3,20,0.00
2013-10-21,75,53,44,46,33,27,59,47,35,29.56,29.41,12,0,12,0.00
2013-10-22,74,56,46,54,42,33,99,61,36,29.41,29.12,12,1,12,0.00
2013-10-23,49,44,39,33,30,26,73,59,47,29.21,29.00,11,1,11,0.00
2013-10-24,63,44,37,36,25,19,62,47,36,29.32,29.06,21,4,21,0.00
2013-10-25,50,42,36,26,22,19,52,45,39,29.62,29.32,17,5,17,0.00
2013-10-26,63,45,35,36,26,20,65,47,36,29.62,29.29,22,3,22,0.00
2013-10-27,68,48,41,39,28,20,74,45,35,29.50,29.23,17,3,17,0.00
2013-10-28,69,47,36,40,26,21,60,44,35,29.77,29.50,17,3,17,0.00
2013-10-29,64,43,36,36,21,16,46,41,36,29.88,29.77,12,2,12,0.00
2013-10-30,62,46,35,39,28,0,71,51,41,29.83,29.62,10,0,10,0.00
2013-10-31,63,54,42,62,49,32,100,84,59,29.68,29.23,16,2,16,0.12
2013-11-1,66,62,58,64,54,46,100,77,54,29.23,28.94,26,6,26,0.08
2013-11-2,77,57,51,48,38,33,68,50,34,29.12,29.00,12,1,12,0.00
2013-11-3,52,44,31,37,26,11,68,49,40,29.85,29.12,17,6,17,0.00
2013-11-4,54,35,25,29,15,8,55,44,38,30.18,29.85,16,4,17,0.00
2013-11-5,60,39,27,33,23,14,65,53,37,30.18,29.97,12,1,12,0.00
2013-11-6,64,51,41,54,38,28,100,65,38,29.97,29.50,14,2,14,0.00
2013-11-7,63,54,39,62,50,0,100,89,59,29.50,29.09,22,6,22,0.43
2013-11-8,61,40,33,34,23,16,85,51,37,29.56,29.26,34,7,34,0.00
2013-11-9,52,39,31,28,20,15,56,47,39,29.68,29.44,20,4,20,0.00
2013-11-10,68,48,39,40,30,24,67,51,35,29.44,29.15,22,3,22,0.00
2013-11-11,67,46,38,38,25,18,49,43,35,29.56,29.32,35,7,35,0.00
2013-11-12,50,36,26,33,20,8,95,54,41,29.62,29.29,26,10,26,0.04
2013-11-13,56,29,22,30,10,6,53,45,37,29.71,29.62,26,8,26,0.00
2013-11-14,61,40,28,34,18,8,48,42,36,29.65,29.50,16,3,16,0.00
2013-11-15,70,46,38,40,28,19,89,51,34,29.68,29.59,12,2,12,0.00
2013-11-16,76,49,41,45,33,22,100,57,33,29.77,29.65,12,2,12,0.00
2013-11-17,61,54,41,61,51,41,100,93,53,29.74,29.23,16,2,16,0.04
2013-11-18,79,59,47,64,46,27,100,67,35,29.23,28.97,23,6,23,0.47
2013-11-19,64,41,30,36,20,14,51,44,36,29.71,29.09,38,13,38,0.00
2013-11-20,61,33,25,34,14,8,52,45,36,30.09,29.71,19,7,22,0.00
2013-11-21,67,36,21,38,20,9,67,53,35,30.09,29.85,12,3,12,0.00
2013-11-22,53,48,44,53,46,32,100,91,64,29.85,29.23,13,1,13,0.04
2013-11-23,61,41,28,50,24,10,100,51,37,29.35,29.23,34,12,34,0.00
2013-11-24,38,24,20,16,4,1,46,42,39,29.65,29.26,51,18,51,0.00
2013-11-25,47,26,16,24,7,-2,50,43,39,29.85,29.65,26,8,26,0.00
2013-11-26,47,38,33,47,23,13,100,57,41,29.77,29.38,16,3,16,0.24
2013-11-27,66,53,36,66,52,21,100,94,54,29.38,28.61,37,11,37,2.13
2013-11-28,46,30,23,23,12,4,58,45,40,29.91,28.91,35,10,35,0.04
2013-11-29,47,29,21,24,10,4,47,44,39,30.21,29.91,22,3,22,0.00
2013-11-30,46,26,14,23,10,0,61,50,40,30.24,29.85,15,2,15,0.00
2013-12-1,45,39,31,45,36,18,100,88,57,29.85,29.41,12,1,12,0.12
2013-12-2,44,39,35,44,37,30,100,93,60,29.41,29.29,12,2,12,0.00
2013-12-3,59,40,34,40,30,22,100,71,39,29.38,29.23,17,6,17,0.00
2013-12-4,60,40,30,33,24,20,72,56,37,29.59,29.38,12,1,12,0.00
2013-12-5,56,51,38,56,49,29,100,94,66,29.59,29.35,12,2,12,0.00
2013-12-6,61,49,38,61,48,34,100,95,73,29.53,29.29,17,6,17,0.51
2013-12-7,43,35,29,38,24,12,100,67,42,29.91,29.47,33,8,33,0.24
2013-12-8,32,28,22,14,11,9,62,49,43,30.06,29.88,14,3,14,0.00
2013-12-9,40,34,26,40,33,15,100,96,57,29.91,29.29,21,5,21,0.16
2013-12-10,36,33,24,36,31,17,100,92,65,29.44,29.18,6,0,8,0.00
2013-12-11,27,23,20,18,13,9,80,65,51,29.65,29.44,11,0,11,0.00
2013-12-12,35,21,14,13,3,-3,54,47,40,29.71,29.50,19,6,19,0.00
2013-12-13,37,24,14,16,5,-3,52,45,40,29.77,29.44,22,5,22,0.00
2013-12-14,32,20,16,32,7,-1,100,58,42,30.00,29.38,22,7,22,0.00
2013-12-15,37,32,26,37,26,13,100,78,53,29.38,28.76,31,8,31,0.04
2013-12-16,43,25,15,20,7,-2,56,46,40,29.62,29.15,26,6,26,0.00
2013-12-17,23,18,11,15,5,-4,74,58,46,29.65,29.26,25,7,25,0.00
2013-12-18,43,26,19,20,12,8,73,55,40,29.53,29.23,26,8,26,0.00
2013-12-19,53,34,22,27,16,9,59,49,38,29.56,29.38,22,3,22,0.12
2013-12-20,59,42,36,36,26,19,74,54,37,29.53,29.35,14,4,14,0.08
2013-12-21,59,51,43,55,43,36,100,76,46,29.41,29.29,17,5,17,0.00
2013-12-22,61,58,52,60,53,41,100,84,51,29.38,29.23,19,7,19,0.00
2013-12-23,58,48,39,55,47,27,100,95,67,29.50,29.26,22,3,22,0.59
2013-12-24,45,33,25,27,15,6,63,48,40,29.65,29.41,26,10,26,0.00
2013-12-25,39,22,15,16,3,-3,45,43,39,29.97,29.65,27,7,27,0.00
2013-12-26,34,27,21,24,13,3,69,55,45,29.88,29.50,22,3,22,0.00
2013-12-27,42,29,23,20,14,10,72,54,41,29.74,29.62,16,2,16,0.00
2013-12-28,51,37,26,28,20,12,82,51,39,29.68,29.44,26,3,26,0.00
2013-12-29,46,41,37,46,32,22,100,74,51,29.44,28.70,22,5,22,1.18
2013-12-30,42,32,17,40,21,0,100,67,41,29.56,28.91,33,8,33,0.00
2013-12-31,40,20,13,16,4,-4,61,48,38,29.62,29.44,16,4,16,0.00
2014-1-1,40,24,17,18,6,0,62,45,39,29.83,29.62,19,3,21,0.00
2014-1-2,25,21,8,15,11,-1,73,65,53,29.74,29.09,25,10,25,0.00